Flag for U.S.A. Weather past 2 weeks in Passaic, New Jersey, U.S.A.

Now
87 °F

Scattered clouds.


Feels Like: 89 °F
Forecast: 69 / 89 °F
Wind: 10 mph from Southwest

Location: Teterboro Airport

Current Time: Jul 22, 2014 at 7:18:55 PM

Latest Report: Jul 22, 2014 at 12:51 PM


Visibility: 10 mi

Pressure: 30.11 "Hg

Humidity: 48%

Dew point: 65 °F

Location of PassaicLocation

Historic Weather in Passaic — Graph

°F

Passaic temperature yesterday

Maximum temperature yesterday: 87 °F (at 4:51 PM)
Minimum temperature yesterday: 66 °F (at 3:51 AM)
Average temperature yesterday: 76 °F

Past Weeks' High & Low Weather Summary

 TemperatureHumidityPressure
High95 °F (Jul 8, 2:51 PM)89% (Jul 14, 4:00 AM)30.24 "Hg (Jul 14, 4:00 AM)
Low64 °F (Jul 18, 5:51 AM)28% (Jul 18, 3:51 PM)29.65 "Hg (Jul 8, 6:51 PM)
Average78 °F60%30.00 "Hg
* Reported Jul 7 12:51 PM — Jul 22 12:51 PM, Passaic, Weather by CustomWeather, © 2014

Note: Actual official high and low records may vary slightly from our data, if they occured in-between our weather recording intervals... More about our weather records

Advertising

Passaic weather history for previous 24 hours

 ConditionsComfort  
Time TempWeatherWind HumidityBarometerVisibility
12:51 PM
Jul 22
87 °FScattered clouds.10 mph48%30.11 "Hg10 mi
11:51 AM86 °FScattered clouds.10 mph51%30.12 "Hg10 mi
10:51 AM85 °FSunny.5 mph53%30.13 "Hg10 mi
9:51 AM81 °FSunny.6 mph60%30.15 "Hg10 mi
8:51 AM78 °FSunny.6 mph62%30.16 "Hg10 mi
7:51 AM75 °FSunny.No wind66%30.17 "Hg10 mi
6:51 AM71 °FSunny.3 mph73%30.16 "Hg10 mi
5:51 AM70 °FClear.No wind73%30.16 "Hg10 mi
4:51 AM70 °FClear.No wind73%30.15 "Hg10 mi
3:51 AM69 °FClear.No wind76%30.15 "Hg10 mi
2:51 AM73 °FClear.No wind66%30.15 "Hg10 mi
1:51 AM74 °FClear.No wind67%30.15 "Hg10 mi
12:51 AM73 °FClear.5 mph71%30.15 "Hg10 mi
11:51 PM
Jul 21
75 °FClear.No wind66%30.15 "Hg10 mi
10:51 PM76 °FClear.6 mph62%30.16 "Hg10 mi
9:51 PM77 °FClear.6 mph58%30.16 "Hg10 mi
8:51 PM78 °FSunny.7 mph54%30.14 "Hg10 mi
7:51 PM79 °FSunny.8 mph54%30.14 "Hg10 mi
Weather by CustomWeather, © 2014

See weather overviewHow to use our weather pages